History for KNYNEWYO699

New York City, New York, NY — Current Conditions
Daily Summary for August 22, 2017
  Current: High: Low: Average:
Temperature: 92.7°F 92.7°F 75.6°F 84.1°F
Dew Point: 74.0°F 75.4°F 70.0°F 72.2°F
Humidity: 54% 86% 53% 77%
Wind Speed: - 0.0mph - 0.0mph
Wind Gust: - 0.0mph - -
Wind: North - - North
Pressure: 29.80in 30.10in 29.80in -
Precipitation: 0.00in      
Statistics for the rest of the month
    High: Low: Average:
Temperature:   105.1°F 66.9°F 80.1°F
Dew Point:   76.8°F 52.3°F 64.7°F
Humidity:   91.0% 31.0% 65.8%
Wind Speed:   0.0mph from the North - 0.0mph
Wind Gust:   0.0mph from the North - -
Wind:   - - North
Pressure:   30.25in 29.76in -
Precipitation:   0.00in    
KNYNEWYO699 Weather Graph
Tabular Data for August 22, 2017
Time Temp. Heat Index Dew Point Pressure Wind Gust Humidity Rainfall
00:17 78.4°F - 70.0°F 30.10in - 75% -
00:38 78.1°F - 70.4°F 30.09in - 77% -
00:48 77.9°F - 70.3°F 30.09in - 77% -
01:08 77.7°F - 70.5°F 30.09in - 78% -
01:18 77.4°F - 70.1°F 30.09in - 78% -
01:38 77.4°F - 70.1°F 30.07in - 78% -
01:48 77.4°F - 70.5°F 30.07in - 79% -
02:08 77.2°F - 70.3°F 30.06in - 79% -
02:18 77.0°F - 70.5°F 30.06in - 80% -
02:38 77.0°F - 70.8°F 30.06in - 81% -
02:48 77.0°F - 70.8°F 30.06in - 81% -
03:08 77.0°F - 70.8°F 30.06in - 81% -
03:18 77.0°F - 70.8°F 30.05in - 81% -
03:38 76.6°F - 70.8°F 30.04in - 82% -
03:48 76.6°F - 70.8°F 30.04in - 82% -
04:18 76.3°F - 71.2°F 30.04in - 84% -
04:28 76.3°F - 71.2°F 30.04in - 84% -
04:38 76.1°F - 71.0°F 30.04in - 84% -
04:48 75.9°F - 71.2°F 30.03in - 85% -
05:08 75.9°F - 71.2°F 30.03in - 85% -
05:18 75.7°F - 71.0°F 30.03in - 85% -
05:39 75.7°F - 71.0°F 30.03in - 85% -
05:49 75.7°F - 71.3°F 30.03in - 86% -
06:09 75.7°F - 71.3°F 30.03in - 86% -
06:19 75.6°F - 71.2°F 30.03in - 86% -
06:39 75.7°F - 71.0°F 30.04in - 85% -
06:49 75.7°F - 71.0°F 30.03in - 85% -
07:09 76.1°F - 71.4°F 30.03in - 85% -
07:19 76.5°F - 71.7°F 30.03in - 85% -
07:49 77.4°F - 72.3°F 30.03in - 84% -
08:19 77.4°F - 72.6°F 30.02in - 85% -
08:39 78.1°F - 73.0°F 30.02in - 84% -
09:09 79.2°F - 73.0°F 30.01in - 81% -
09:19 79.5°F - 73.3°F 30.01in - 81% -
09:39 80.1°F 84.3°F 73.1°F 30.01in - 79% -
09:49 80.4°F 84.8°F 73.1°F 30.01in - 78% -
10:19 81.9°F 87.6°F 73.7°F 30.00in - 76% -
10:40 81.9°F 87.4°F 73.3°F 29.99in - 75% -
11:10 82.9°F 89.0°F 73.6°F 29.99in - 73% -
11:40 83.8°F 90.7°F 74.1°F 29.98in - 72% -
12:10 85.1°F 93.3°F 74.9°F 29.96in - 71% -
12:40 86.2°F 95.1°F 75.1°F 29.95in - 69% -
13:10 86.9°F 96.4°F 75.3°F 29.94in - 68% -
13:44 87.6°F 96.6°F 74.7°F 29.93in - 65% -
14:15 88.7°F 98.7°F 75.3°F 29.91in - 64% -
14:45 89.4°F 99.4°F 75.0°F 29.88in - 62% -
15:15 90.3°F 101.0°F 75.4°F 29.86in - 61% -
15:45 91.2°F 101.4°F 74.3°F 29.84in - 57% -
16:15 91.6°F 100.5°F 73.6°F 29.83in - 55% -
16:45 91.9°F 100.0°F 72.8°F 29.82in - 53% -
17:15 92.1°F 100.5°F 73.0°F 29.81in - 53% -
17:45 92.7°F 102.5°F 74.0°F 29.80in - 54% -
Comma Delimited File
Powered by Weather Underground, Inc.